This is the latest recevied weather packets stored in our database for station/object KD6VLN-14. If no packets are shown the sender has not sent any weather packets the latest 1 day(s).
| Time | Temp. | Humidity | Pressure | Rain* | Wind** | Luminosity | Snow |
|---|---|---|---|---|---|---|---|
| 1778014449 | 22.78° C | 38% | - | 0 mm | 4.47 m/s, 223° | - | - |
| 1778014149 | 22.78° C | 38% | - | 0 mm | 4.47 m/s, 218° | - | - |
| 1778013902 | 22.78° C | 38% | - | 0 mm | 4.92 m/s, 225° | - | - |
| 1778013850 | 22.78° C | 38% | - | 0 mm | 4.92 m/s, 225° | - | - |
| 1778013555 | 23.33° C | 38% | - | 0 mm | 4.02 m/s, 226° | - | - |
| 1778012949 | 23.33° C | 38% | - | 0 mm | 4.02 m/s, 250° | - | - |
| 1778012202 | 23.33° C | 39% | - | 0 mm | 2.24 m/s, 250° | - | - |
| 1778012048 | 23.33° C | 39% | - | 0 mm | 2.24 m/s, 250° | - | - |
| 1778011851 | 23.33° C | 40% | - | 0 mm | 1.34 m/s, 307° | - | - |
| 1778011749 | 23.33° C | 40% | - | 0 mm | 1.34 m/s, 307° | - | - |
| 1778011594 | 23.33° C | 40% | - | 0 mm | 2.24 m/s, 280° | - | - |
| 1778011449 | 23.33° C | 40% | - | 0 mm | 2.24 m/s, 280° | - | - |
| 1778011299 | 23.33° C | 40% | - | 0 mm | 1.79 m/s, 303° | - | - |
| 1778011148 | 23.33° C | 40% | - | 0 mm | 1.79 m/s, 303° | - | - |
| 1778010998 | 23.89° C | 42% | - | 0 mm | 1.34 m/s, 348° | - | - |
| 1778010848 | 23.89° C | 42% | - | 0 mm | 1.34 m/s, 348° | - | - |
| 1778010802 | 24.44° C | 40% | - | 0 mm | 1.79 m/s, 261° | - | - |
| 1778010548 | 24.44° C | 40% | - | 0 mm | 1.79 m/s, 261° | - | - |
| 1778010348 | 24.44° C | 41% | - | 0 mm | 1.34 m/s, 320° | - | - |
| 1778010248 | 24.44° C | 41% | - | 0 mm | 1.34 m/s, 320° | - | - |
| 1778010140 | 23.33° C | 41% | - | 0 mm | 1.34 m/s, 313° | - | - |
| 1778009948 | 23.33° C | 41% | - | 0 mm | 1.34 m/s, 313° | - | - |
| 1778009787 | 23.33° C | 42% | - | 0 mm | 1.34 m/s, 312° | - | - |
| 1778009648 | 23.33° C | 42% | - | 0 mm | 1.34 m/s, 312° | - | - |
| 1778009543 | 23.33° C | 40% | - | 0 mm | 1.34 m/s, 314° | - | - |
* Rain latest hour (hover to see other rain measurements)
** Current wind speed in m/s (hover to see current wind gust speed)